Flag for U.S.A. Weather past 2 weeks in Syracuse, New York, U.S.A.

65 °F


Feels Like: 65 °F
Forecast: 49 / 64 °F
Wind: 18 mph from Southwest

Location: Syracuse Hancock International Airport

Current Time: Nov 27, 2015 at 3:01:39 PM

Latest Report: Nov 27, 2015 at 1:54 PM

Visibility: 10 mi

Pressure: 30.18 "Hg

Humidity: 49%

Dew point: 45 °F

Location of SyracuseLocation

Historic Weather in Syracuse — Graph


Syracuse temperature yesterday

Maximum temperature yesterday: 59 °F (at 1:54 PM)
Minimum temperature yesterday: 42 °F (at 4:54 AM)
Average temperature yesterday: 51 °F

Past Weeks' High & Low Weather Summary

High66 °F (Nov 19, 11:54 AM)100% (Nov 16, 7:54 AM)30.67 "Hg (Nov 16, 7:54 AM)
Low27 °F (Nov 17, 4:54 AM)37% (Nov 16, 3:54 PM)29.36 "Hg (Nov 12, 3:54 PM)
Average44 °F67%30.16 "Hg
* Reported Nov 12 1:54 PM — Nov 27 1:54 PM, Syracuse, Weather by CustomWeather, © 2015

Note: Actual official high and low records may vary slightly from our data, if they occured in-between our weather recording intervals... More about our weather records


Syracuse weather history for previous 24 hours

Time TempWeatherWind HumidityBarometerVisibility
1:54 PM
Fri, Nov 27
65 °FCloudy.18 mph49%30.18 "Hg10 mi
12:54 PM65 °FMore clouds than sun.20 mph49%30.21 "Hg10 mi
11:54 AM65 °FMore clouds than sun.17 mph49%30.23 "Hg10 mi
10:54 AM62 °FMore clouds than sun.9 mph52%30.27 "Hg10 mi
9:54 AM60 °FMostly cloudy.6 mph56%30.30 "Hg10 mi
8:54 AM57 °FCloudy.7 mph60%30.31 "Hg10 mi
7:54 AM56 °FMostly cloudy.9 mph60%30.32 "Hg10 mi
6:54 AM55 °FPassing clouds.13 mph62%30.32 "Hg10 mi
5:54 AM55 °FPassing clouds.12 mph62%30.33 "Hg10 mi
4:54 AM53 °FPartly cloudy.12 mph66%30.36 "Hg10 mi
3:54 AM54 °FPartly cloudy.18 mph64%30.36 "Hg10 mi
2:54 AM53 °FPassing clouds.17 mph66%30.40 "Hg10 mi
1:54 AM54 °FPassing clouds.17 mph64%30.41 "Hg10 mi
12:54 AM54 °FPassing clouds.17 mph64%30.42 "Hg10 mi
11:54 PM
Thu, Nov 26
54 °FPassing clouds.16 mph64%30.44 "Hg10 mi
10:54 PM54 °FPassing clouds.21 mph62%30.45 "Hg10 mi
9:54 PM54 °FPartly cloudy.15 mph62%30.45 "Hg10 mi
8:54 PM54 °FMostly cloudy.15 mph62%30.48 "Hg10 mi
7:54 PM55 °FPassing clouds.17 mph57%30.48 "Hg10 mi
6:54 PM55 °FPartly cloudy.12 mph57%30.50 "Hg10 mi
5:54 PM54 °FPassing clouds.9 mph59%30.50 "Hg10 mi
4:54 PM56 °FMostly cloudy.9 mph55%30.50 "Hg10 mi
3:54 PM57 °FMore clouds than sun.13 mph55%30.50 "Hg10 mi
Weather by CustomWeather, © 2015

See weather overviewHow to use our weather pages